GW7054 Weather Reports


time (UTC)temp
C
wind
direction
speed
KPH
gust
KPH
rain 1hr
cm
rain 24hr
cm
rain mn
cm
humidity
%
barometer
mb
20260510122846 20 67 0.0 1.6 0.00 0.00 0.00 99 1018.1
20260510122342 20 76 1.6 1.6 0.00 0.00 0.00 99 1018.1
20260510121839 20 32 0.0 0.0 0.00 0.00 0.00 99 1017.8
20260510121336 20 74 0.0 0.0 0.00 0.00 0.00 99 1017.8
20260510120833 20 80 0.0 0.0 0.00 0.00 0.00 99 1017.7
20260510120330 20 12 0.0 0.0 0.00 0.00 0.00 99 1017.7
20260510115826 20 73 0.0 0.0 0.00 0.00 0.00 99 1017.5
20260510115323 20 71 0.0 0.0 0.00 0.00 0.00 99 1017.4
20260510114819 20 66 3.2 3.2 0.00 0.00 0.00 99 1017.4
20260510114316 20 67 1.6 1.6 0.00 0.00 0.00 99 1017.2
20260510113811 20 79 0.0 0.0 0.00 0.00 0.00 99 1017.2
20260510113308 20 75 0.0 1.6 0.00 0.00 0.00 99 1016.9
20260510112805 20 82 0.0 0.0 0.00 0.00 0.00 99 1017.0
20260510112305 20 82 0.0 0.0 0.00 0.00 0.00 99 1017.1
20260510111757 20 82 0.0 0.0 0.00 0.00 0.00 99 1017.1
20260510111255 20 87 0.0 0.0 0.00 0.00 0.00 99 1016.8
20260510110754 20 77 0.0 0.0 0.00 0.00 0.00 99 1016.8
20260510110252 20 83 0.0 0.0 0.00 0.00 0.00 99 1016.8
20260510105752 20 90 0.0 0.0 0.00 0.00 0.00 99 1016.8
20260510105247 20 84 0.0 0.0 0.00 0.00 0.00 99 1016.6
20260510104744 20 82 0.0 0.0 0.00 0.00 0.00 99 1016.7
20260510104241 20 90 0.0 0.0 0.00 0.00 0.00 99 1016.5
20260510103737 20 90 0.0 0.0 0.00 0.00 0.00 99 1016.6
20260510103235 20 90 0.0 0.0 0.00 0.00 0.00 99 1016.4
20260510102734 20 90 0.0 0.0 0.00 0.00 0.00 99 1016.3
20260510102230 20 91 0.0 0.0 0.00 0.00 0.00 99 1016.1
20260510101728 19 84 0.0 0.0 0.00 0.00 0.00 99 1016.2
20260510101226 19 73 0.0 0.0 0.00 0.00 0.00 99 1015.8
20260510100722 19 83 0.0 0.0 0.00 0.00 0.00 99 1015.8
20260510100220 19 86 0.0 0.0 0.00 0.00 0.00 99 1015.9
20260510095715 20 86 0.0 0.0 0.00 0.00 0.00 99 1016.0
20260510095211 19 83 0.0 0.0 0.00 0.00 0.00 99 1016.1
20260510094709 19 85 0.0 0.0 0.00 0.00 0.00 99 1015.8
20260510094205 19 89 0.0 0.0 0.00 0.00 0.00 99 1015.6
20260510093701 19 90 0.0 0.0 0.00 0.00 0.00 99 1015.6
20260510093159 19 91 0.0 0.0 0.00 0.00 0.00 99 1015.6
20260510092655 19 90 0.0 0.0 0.00 0.00 0.00 99 1015.9
20260510092150 19 91 0.0 0.0 0.00 0.00 0.00 99 1015.9
20260510091646 19 91 0.0 0.0 0.00 0.00 0.00 99 1015.9
20260510091143 19 91 0.0 0.0 0.00 0.00 0.00 99 1015.4
20260510090640 19 91 0.0 0.0 0.00 0.00 0.00 99 1015.5
20260510090136 19 92 0.0 0.0 0.00 0.00 0.00 99 1015.4
20260510085631 19 91 0.0 0.0 0.00 0.00 0.00 99 1015.6
20260510085126 19 87 0.0 0.0 0.00 0.00 0.00 99 1015.4
20260510084624 19 83 0.0 0.0 0.00 0.00 0.00 99 1015.3
20260510084121 19 85 0.0 0.0 0.00 0.00 0.00 99 1015.1
20260510083617 19 82 0.0 0.0 0.00 0.00 0.00 99 1015.1
20260510083113 19 81 0.0 0.0 0.00 0.00 0.00 99 1014.9
20260510082610 20 85 0.0 0.0 0.00 0.00 0.00 99 1015.0
20260510082105 20 85 0.0 0.0 0.00 0.00 0.00 99 1015.0
20260510081600 20 88 0.0 0.0 0.00 0.00 0.00 99 1015.0
20260510081056 20 93 0.0 0.0 0.00 0.00 0.00 99 1015.0
20260510080555 20 91 0.0 0.0 0.00 0.00 0.00 99 1015.1
20260510080053 20 85 0.0 0.0 0.00 0.00 0.00 99 1015.2
20260510075550 20 86 0.0 0.0 0.00 0.00 0.00 99 1015.2
20260510075046 20 85 0.0 0.0 0.00 0.00 0.00 99 1014.9
20260510074544 20 83 0.0 0.0 0.00 0.00 0.00 99 1015.1
20260510074039 20 83 0.0 0.0 0.00 0.00 0.00 99 1014.9
20260510073536 20 83 0.0 0.0 0.00 0.00 0.00 99 1014.9
20260510073033 20 83 0.0 0.0 0.00 0.00 0.00 99 1014.9
20260510072529 20 85 0.0 0.0 0.00 0.00 0.00 99 1015.0
20260510072025 20 79 0.0 0.0 0.00 0.00 0.00 99 1015.2
20260510071521 20 82 0.0 0.0 0.00 0.00 0.00 99 1015.1
20260510071020 20 87 0.0 0.0 0.00 0.00 0.00 99 1015.0
20260510070516 20 87 0.0 0.0 0.00 0.00 0.00 99 1015.2
20260510070013 20 89 0.0 0.0 0.00 0.00 0.00 99 1014.9
20260510065509 20 92 0.0 0.0 0.00 0.00 0.00 99 1014.7
20260510065005 20 87 0.0 0.0 0.00 0.00 0.00 99 1015.1
20260510064503 20 78 0.0 0.0 0.00 0.00 0.00 99 1015.2
20260510063959 20 90 0.0 0.0 0.00 0.00 0.00 99 1015.2
20260510063455 20 82 0.0 0.0 0.00 0.00 0.00 99 1015.1
20260510062953 20 93 0.0 0.0 0.00 0.00 0.00 99 1015.5
20260510062449 20 83 0.0 0.0 0.00 0.00 0.00 99 1015.1
20260510061944 20 80 0.0 0.0 0.00 0.00 0.00 99 1015.2
20260510061441 20 89 0.0 0.0 0.00 0.00 0.00 99 1015.5
20260510060937 20 93 0.0 0.0 0.00 0.00 0.00 99 1015.3
20260510060434 20 84 0.0 0.0 0.00 0.00 0.00 99 1015.5
20260510055930 20 84 0.0 0.0 0.00 0.00 0.00 99 1015.3
20260510055426 20 84 0.0 0.0 0.00 0.00 0.00 99 1015.2
20260510054924 20 78 0.0 0.0 0.00 0.00 0.00 99 1015.5
20260510054420 20 56 0.0 0.0 0.00 0.00 0.00 99 1015.5
20260510053915 20 81 0.0 0.0 0.00 0.00 0.00 99 1015.7
20260510053411 20 108 0.0 1.6 0.00 0.00 0.00 99 1015.7
20260510052907 20 94 0.0 0.0 0.00 0.00 0.00 99 1015.3
20260510052403 20 102 0.0 1.6 0.00 0.00 0.00 99 1015.4
20260510051859 20 78 0.0 0.0 0.00 0.00 0.00 99 1015.6
20260510051356 20 127 3.2 3.2 0.00 0.00 0.00 99 1015.7
20260510050853 20 193 3.2 3.2 0.00 0.00 0.00 99 1016.0
20260510050349 20 106 0.0 1.6 0.00 0.00 0.00 99 1015.5
20260510045846 20 180 3.2 4.8 0.00 0.00 0.00 99 1015.7
20260510045343 20 120 1.6 1.6 0.00 0.00 0.00 99 1015.8
20260510044840 20 95 0.0 0.0 0.00 0.00 0.00 99 1015.8
20260510044337 20 92 0.0 0.0 0.00 0.00 0.00 99 1015.9
20260510043834 20 117 0.0 0.0 0.00 0.00 0.00 99 1015.8
20260510043330 20 93 0.0 0.0 0.00 0.00 0.00 99 1015.8
20260510042828 20 105 0.0 0.0 0.00 0.00 0.00 99 1016.2
20260510042323 20 85 0.0 0.0 0.00 0.00 0.00 99 1016.0
20260510041820 20 182 3.2 4.8 0.00 0.00 0.00 99 1016.3
20260510041317 20 90 0.0 0.0 0.00 0.00 0.00 99 1016.3
20260510040814 20 90 1.6 1.6 0.00 0.00 0.00 99 1016.2
20260510040311 20 98 0.0 0.0 0.00 0.00 0.00 99 1016.1
20260510035806 20 106 1.6 1.6 0.00 0.28 0.28 99 1016.1
20260510035306 20 93 1.6 1.6 0.00 0.28 0.28 99 1016.3
20260510034758 20 92 0.0 0.0 0.00 0.28 0.28 99 1015.9
20260510034256 20 88 0.0 0.0 0.00 0.28 0.28 99 1016.0
20260510033752 20 90 0.0 0.0 0.00 0.28 0.28 99 1016.2
20260510033250 20 101 0.0 0.0 0.00 0.28 0.28 99 1016.4
20260510032746 20 94 0.0 0.0 0.00 0.28 0.28 99 1016.0
20260510032242 20 94 0.0 0.0 0.00 0.28 0.28 99 1016.0
20260510031738 20 90 0.0 0.0 0.00 0.28 0.28 99 1016.3
20260510031233 20 89 0.0 0.0 0.00 0.28 0.28 99 1016.1
20260510030733 20 85 0.0 0.0 0.00 0.28 0.28 99 1016.1
20260510030231 20 82 0.0 0.0 0.00 0.28 0.28 99 1015.9
20260510025728 20 87 0.0 0.0 0.00 0.28 0.28 99 1016.1
20260510025225 20 87 0.0 0.0 0.00 0.28 0.28 99 1016.2
20260510024722 20 87 0.0 0.0 0.00 0.28 0.28 99 1016.3
20260510024219 20 87 0.0 0.0 0.00 0.28 0.28 99 1016.1
20260510023714 20 89 0.0 0.0 0.00 0.28 0.28 99 1016.3
20260510023212 20 90 0.0 0.0 0.00 0.28 0.28 99 1016.3
20260510022708 20 91 0.0 0.0 0.00 0.28 0.28 99 1016.2
20260510022202 20 95 0.0 0.0 0.00 0.28 0.28 99 1016.1
20260510021658 20 86 0.0 0.0 0.00 0.28 0.28 99 1015.7
20260510021155 20 85 0.0 0.0 0.00 0.28 0.28 99 1016.0
20260510020649 20 93 0.0 0.0 0.00 0.28 0.28 99 1016.1
20260510020145 20 100 0.0 0.0 0.00 0.28 0.28 99 1015.9
20260510015641 20 94 0.0 0.0 0.00 0.28 0.28 99 1015.8
20260510015138 20 90 0.0 0.0 0.00 0.28 0.28 99 1015.7
20260510014638 20 95 0.0 0.0 0.00 0.28 0.28 99 1015.8
20260510014136 20 89 0.0 0.0 0.00 0.28 0.28 99 1015.6
20260510013631 20 90 0.0 0.0 0.00 0.28 0.28 99 1015.7
20260510013126 20 83 0.0 0.0 0.00 0.28 0.28 99 1015.6
20260510012626 20 93 0.0 0.0 0.00 0.28 0.28 99 1015.5
20260510012123 20 116 0.0 0.0 0.00 0.28 0.28 99 1015.6
20260510011622 20 76 0.0 0.0 0.00 0.28 0.28 99 1015.2
20260510011118 20 81 0.0 0.0 0.00 0.28 0.28 99 1015.3
20260510010615 20 80 0.0 0.0 0.00 0.28 0.28 99 1015.4
20260510010113 20 81 0.0 0.0 0.00 0.28 0.28 99 1015.2
20260510005608 20 85 0.0 0.0 0.00 0.28 0.28 99 1015.4
20260510005105 20 86 0.0 0.0 0.00 0.28 0.28 99 1015.3
20260510004603 20 86 0.0 0.0 0.00 0.28 0.28 99 1015.0
20260510004101 20 73 0.0 0.0 0.00 0.28 0.28 99 1015.1
20260510003557 20 72 0.0 0.0 0.00 0.28 0.28 99 1015.1
20260510003053 20 87 0.0 0.0 0.00 0.28 0.28 99 1015.2
20260510002548 20 81 0.0 0.0 0.00 0.28 0.28 99 1015.1
20260510002046 20 110 0.0 1.6 0.00 0.28 0.28 99 1015.1
20260510001543 20 87 0.0 0.0 0.00 0.28 0.28 99 1015.0
20260510001042 20 84 0.0 0.0 0.00 0.28 0.28 99 1015.0
20260510000536 20 88 0.0 0.0 0.18 0.28 0.28 99 1015.0
20260510000033 20 90 0.0 0.0 0.18 0.28 0.28 99 1015.1
20260509235530 20 111 0.0 0.0 0.00 0.25 0.25 99 1015.0
20260509235027 20 93 0.0 0.0 0.00 0.25 0.25 99 1014.9
20260509234523 20 95 0.0 0.0 0.00 0.25 0.25 99 1014.6
20260509234021 20 90 0.0 0.0 0.00 0.25 0.25 99 1014.9
20260509233518 20 94 0.0 0.0 0.00 0.25 0.25 99 1014.9
20260509233015 21 94 0.0 0.0 0.00 0.25 0.25 99 1015.2
20260509232512 21 94 0.0 0.0 0.00 0.25 0.25 99 1015.4
20260509232008 21 94 0.0 0.0 0.00 0.25 0.25 99 1015.4
20260509231505 21 92 0.0 0.0 0.00 0.25 0.25 99 1015.3
20260509231002 21 83 0.0 0.0 0.00 0.25 0.25 99 1015.4
20260509230459 21 93 0.0 0.0 0.00 0.25 0.25 99 1015.6
20260509225955 21 90 0.0 0.0 0.00 0.25 0.25 99 1015.5
20260509225452 21 94 0.0 0.0 0.00 0.25 0.25 99 1015.6
20260509224947 21 60 0.0 0.0 0.13 0.25 0.25 99 1015.5
20260509224443 21 84 0.0 0.0 0.30 0.25 0.25 99 1015.7
20260509223940 21 93 0.0 0.0 0.18 0.23 0.23 99 1015.6
20260509223437 21 94 0.0 0.0 0.13 0.20 0.20 99 1015.8
20260509222935 21 95 0.0 0.0 0.13 0.20 0.20 99 1015.9
20260509222429 21 90 0.0 0.0 0.00 0.18 0.18 99 1015.6
20260509221926 21 92 0.0 0.0 0.00 0.18 0.18 99 1015.6
20260509221422 21 102 0.0 0.0 0.00 0.18 0.18 99 1015.4
20260509220918 21 109 0.0 0.0 0.00 0.18 0.18 99 1015.6
20260509220414 21 82 0.0 0.0 0.00 0.18 0.18 99 1015.6
20260509215910 21 95 0.0 0.0 0.00 0.18 0.18 99 1015.7
20260509215406 21 96 0.0 0.0 0.00 0.18 0.18 99 1015.9
20260509214904 21 89 0.0 0.0 0.00 0.18 0.18 99 1015.6
20260509214401 21 85 0.0 0.0 0.00 0.18 0.18 99 1015.6
20260509213858 21 115 0.0 0.0 0.00 0.18 0.18 99 1015.4
20260509213353 21 172 0.0 0.0 0.00 0.18 0.18 99 1015.4
20260509212851 21 82 0.0 0.0 0.00 0.18 0.18 99 1015.3
20260509212348 21 112 0.0 0.0 0.00 0.18 0.18 99 1015.0
20260509211844 21 86 0.0 0.0 0.00 0.18 0.18 99 1015.1
20260509211340 21 65 1.6 1.6 0.00 0.18 0.18 99 1015.0
20260509210837 21 87 0.0 0.0 0.18 0.18 0.18 99 1015.1
20260509210335 21 81 0.0 0.0 0.79 0.18 0.18 99 1014.9
20260509205834 21 82 0.0 1.6 0.61 0.15 0.15 98 1015.1
20260509205329 21 77 1.6 1.6 0.00 0.05 0.05 97 1015.4
20260509204826 21 100 1.6 1.6 0.00 0.05 0.05 97 1014.9
20260509204322 21 87 0.0 1.6 0.18 0.05 0.05 96 1015.0
20260509203818 21 287 3.2 3.2 0.18 0.05 0.05 95 1014.9
20260509203315 21 114 1.6 3.2 0.00 0.03 0.03 94 1015.0
20260509202812 21 73 4.8 8.0 0.00 0.03 0.03 94 1015.1
20260509202308 22 17 6.4 9.7 0.00 0.03 0.03 93 1014.9
20260509201807 22 356 6.4 8.0 0.00 0.03 0.03 93 1014.9
20260509201304 21 62 4.8 4.8 0.00 0.03 0.03 94 1014.9
20260509200800 21 34 4.8 8.0 0.00 0.03 0.03 95 1015.1
20260509200256 21 64 0.0 1.6 0.00 0.03 0.03 94 1015.3
20260509195752 21 74 0.0 0.0 0.00 0.03 0.03 96 1015.2
20260509195248 21 34 3.2 3.2 0.00 0.03 0.03 96 1015.2
20260509194748 21 41 3.2 3.2 0.00 0.03 0.03 96 1015.3
20260509194244 21 70 1.6 1.6 0.00 0.03 0.03 96 1015.2
20260509193741 21 23 1.6 3.2 0.00 0.03 0.03 96 1015.5
20260509193241 21 41 1.6 3.2 0.00 0.03 0.03 96 1015.3
20260509192737 21 70 6.4 9.7 0.00 0.03 0.03 96 1015.5
20260509192232 21 80 0.0 0.0 0.00 0.03 0.03 96 1015.7
20260509191728 21 23 9.7 11.3 0.00 0.03 0.03 95 1015.8
20260509191225 21 325 4.8 4.8 0.00 0.03 0.03 95 1015.5
20260509190721 21 90 1.6 3.2 0.00 0.03 0.03 96 1015.7
20260509190218 21 13 8.0 11.3 0.00 0.03 0.03 97 1015.9
20260509185715 20 6 8.0 11.3 0.00 0.03 0.03 98 1015.7
20260509185212 20 349 8.0 9.7 0.00 0.03 0.03 98 1016.1
20260509184709 20 30 14.5 22.5 0.00 0.03 0.03 97 1015.8
20260509184206 21 125 6.4 9.7 0.00 0.03 0.03 98 1015.6
20260509183702 21 288 4.8 9.7 0.00 0.03 0.03 98 1015.9
20260509183158 21 335 6.4 9.7 0.00 0.03 0.03 97 1015.6
20260509182653 21 313 9.7 11.3 0.13 0.03 0.03 97 1015.9
20260509182151 21 39 4.8 9.7 0.13 0.03 0.03 97 1015.8
20260509181649 23 281 6.4 9.7 0.00 0.00 0.00 94 1015.9
20260509181146 25 201 1.6 3.2 0.00 0.00 0.00 92 1015.5
20260509180642 25 230 1.6 3.2 0.00 0.00 0.00 94 1015.1
20260509180139 25 160 4.8 4.8 0.00 0.00 0.00 93 1015.0
20260509175635 25 105 3.2 3.2 0.00 0.00 0.00 93 1015.0
20260509175132 25 196 4.8 8.0 0.00 0.00 0.00 94 1014.9
20260509174628 26 165 3.2 3.2 0.00 0.00 0.00 93 1015.0
20260509174123 26 68 0.0 1.6 0.00 0.00 0.00 92 1015.1
20260509173619 26 42 3.2 3.2 0.00 0.00 0.00 90 1015.0
20260509173115 26 273 3.2 4.8 0.00 0.00 0.00 89 1015.2
20260509172612 26 288 1.6 3.2 0.00 0.00 0.00 89 1014.9
20260509172108 26 113 3.2 4.8 0.00 0.00 0.00 90 1015.0
20260509171604 26 186 4.8 4.8 0.00 0.00 0.00 89 1015.2
20260509171100 26 100 1.6 1.6 0.00 0.00 0.00 88 1015.3
20260509170556 26 88 0.0 0.0 0.00 0.00 0.00 88 1015.3
20260509170052 26 131 1.6 1.6 0.00 0.00 0.00 89 1015.5
20260509165551 26 96 0.0 0.0 0.00 0.00 0.00 88 1015.4
20260509165046 26 76 0.0 1.6 0.00 0.00 0.00 88 1015.6
20260509164543 26 103 0.0 1.6 0.00 0.00 0.00 89 1015.5
20260509164043 26 63 0.0 0.0 0.00 0.00 0.00 89 1015.6
20260509163542 26 76 1.6 3.2 0.00 0.00 0.00 89 1015.6
20260509163037 26 123 0.0 0.0 0.00 0.00 0.00 90 1015.4
20260509162535 25 91 1.6 3.2 0.00 0.00 0.00 90 1015.5
20260509162030 25 31 1.6 3.2 0.00 0.00 0.00 90 1015.5
20260509161527 25 126 1.6 3.2 0.00 0.00 0.00 91 1015.6
20260509161022 25 175 0.0 1.6 0.00 0.00 0.00 90 1015.8
20260509160518 25 97 1.6 1.6 0.00 0.00 0.00 91 1015.6
20260509160014 25 190 3.2 3.2 0.00 0.00 0.00 90 1015.6
20260509155510 25 145 0.0 1.6 0.00 0.00 0.00 91 1015.8
20260509155006 25 95 0.0 1.6 0.00 0.00 0.00 91 1015.6
20260509154503 26 35 1.6 1.6 0.00 0.00 0.00 91 1015.7
20260509154000 25 85 0.0 0.0 0.00 0.00 0.00 91 1015.6
20260509153457 25 74 0.0 1.6 0.00 0.00 0.00 92 1015.2
20260509152954 25 33 1.6 3.2 0.00 0.00 0.00 93 1015.4
20260509152449 24 88 0.0 0.0 0.00 0.00 0.00 94 1015.5
20260509151946 23 325 3.2 3.2 0.00 0.00 0.00 95 1015.7
20260509151443 23 78 0.0 0.0 0.00 0.00 0.00 96 1015.6
20260509150941 23 94 0.0 0.0 0.00 0.00 0.00 98 1015.3
20260509150438 23 81 0.0 1.6 0.00 0.00 0.00 97 1015.5
20260509145936 23 123 1.6 1.6 0.00 0.00 0.00 98 1015.1
20260509145431 22 72 1.6 3.2 0.00 0.00 0.00 99 1015.2
20260509144927 22 95 1.6 1.6 0.00 0.00 0.00 99 1015.3
20260509144424 22 100 1.6 1.6 0.00 0.00 0.00 99 1015.4
20260509143921 22 89 0.0 0.0 0.00 0.00 0.00 99 1015.2
20260509143418 22 40 1.6 1.6 0.00 0.00 0.00 99 1015.2
20260509142914 22 64 1.6 1.6 0.00 0.00 0.00 99 1015.4
20260509142411 22 91 0.0 0.0 0.00 0.00 0.00 99 1015.6
20260509141906 22 137 1.6 3.2 0.00 0.00 0.00 99 1015.5
20260509141404 22 161 1.6 1.6 0.00 0.00 0.00 99 1015.7
20260509140900 22 94 0.0 0.0 0.00 0.00 0.00 99 1015.8
20260509140357 21 102 0.0 1.6 0.00 0.00 0.00 99 1015.4
20260509135855 21 124 1.6 1.6 0.00 0.00 0.00 99 1015.8
20260509135352 21 89 0.0 0.0 0.00 0.00 0.00 99 1015.5
20260509134849 21 92 0.0 0.0 0.00 0.00 0.00 99 1015.5
20260509134347 21 88 0.0 0.0 0.00 0.00 0.00 99 1015.6
20260509133843 21 88 0.0 0.0 0.00 0.00 0.00 99 1015.6
20260509133340 21 86 0.0 0.0 0.00 0.00 0.00 99 1016.0
20260509132839 21 114 1.6 3.2 0.00 0.00 0.00 99 1015.7
20260509132337 21 93 0.0 0.0 0.00 0.00 0.00 99 1015.8
20260509131833 21 135 1.6 1.6 0.00 0.00 0.00 99 1015.4
20260509131330 21 105 1.6 1.6 0.00 0.00 0.00 99 1015.4
20260509130827 21 335 0.0 0.0 0.00 0.00 0.00 99 1015.1
20260509130322 21 107 1.6 1.6 0.00 0.00 0.00 99 1015.2
20260509125819 21 79 1.6 1.6 0.00 0.00 0.00 99 1015.0
20260509125316 21 102 1.6 1.6 0.00 0.00 0.00 99 1015.0
20260509124812 21 94 0.0 0.0 0.00 0.00 0.00 99 1015.1
20260509124309 21 94 0.0 0.0 0.00 0.00 0.00 99 1015.2
20260509123808 21 128 0.0 1.6 0.00 0.00 0.00 99 1015.1
20260509123304 21 77 0.0 0.0 0.00 0.00 0.00 99 1015.1